Current Version              Previous Version:    01  02  03  04  05  06  07  08  09  10  11  12  13  14  15  16  17  18  19  20  21  22  23  24  25  26  27  28  29  30  
   31  32  33  34  35  36  37  38  39  40  41  42  43  44  45  46  47  48  49  50  51  52  53  54  55  56  57  58  59  60  

[Printable]
410
ASUS44 KEWX 172202
RWRTX
SOUTH TEXAS REGIONAL WEATHER ROUNDUP
NATIONAL WEATHER SERVICE AUSTIN/SAN ANTONIO TX
500 PM CDT THU APR 17 2014

NOTE: "FAIR" INDICATED FEW OR NO CLOUDS BELOW 12,000 FEET WITH NO
SIGNIFICANT WEATHER AND/OR OBSTRUCTIONS TO VISIBILITY.

* - THESE STATIONS ARE NOT NWS OR FAA STATIONS...AND ARE NOT SUBJECT
    TO NWS AND FAA QUALITY CONTROL.

TXZ171-172-183>190-172300-
TEXAS HILL COUNTRY AND EDWARDS PLATEAU

CITY           SKY/WX    TMP DP  RH WIND       PRES   REMARKS
JUNCTION       CLOUDY    65  55  70 E14       30.06R
*LLANO         PTSUNNY   64  57  77 SE3       30.12S
BURNET         CLOUDY    63  57  81 E3        30.10S
*HORSESHOE BAY CLOUDY    64  58  81 CALM      30.07S
*KERRVILLE     CLOUDY    65  57  75 E9        30.06R
*FREDERICKSBRG CLOUDY    63  56  79 E7        30.07S
*ROCKSPRINGS   CLOUDY    72  54  53 SE8       30.05F
*BOERNE STAGE  CLOUDY    63  55  77 E8        30.07S
*CASTROVILLE   CLOUDY    67  58  73 E13G22    30.05S
HONDO          CLOUDY    73  60  63 E13       30.04S
*UVALDE        CLOUDY    75  56  51 SE9       30.01S
DEL RIO        SUNNY     79  51  37 E5        29.96F
LAUGHLIN AFB   MOSUNNY   79  54  42 VRB5      29.97F
CARRIZO SPRGS    N/A     79  55  44 SE6G16    29.96S
$$

TXZ173-191>194-202-209-217>225-228-172300-
CENTRAL AND SOUTH CENTRAL TEXAS

CITY           SKY/WX    TMP DP  RH WIND       PRES   REMARKS
GEORGETOWN     CLOUDY    64  59  82 SE3       30.08S
AUSTIN/BERGSTM CLOUDY    64  60  87 SE8       30.06F FOG
AUSTIN/MABRY   CLOUDY    65  57  75 SE6       30.08S
*AUSTIN/EXEC   CLOUDY    66  57  72 SE7       30.07F
*LAGO VISTA    CLOUDY    65  57  76 E3        30.08R
SAN MARCOS     CLOUDY    63  57  82 E12       30.08F FOG
NEW BRAUNFELS  LGT RAIN  63  43  48 E10       30.05S
RANDOLPH AFB   CLOUDY    63  61  94 E9        30.05F FOG
PT SAN ANTONIO CLOUDY    66  60  80 E12       30.03R
SAN ANTONIO    CLOUDY    66  61  84 E9        30.05F
STINSON FIELD  CLOUDY    68  61  78 E12       30.03S
*PLEASANTON    HVY RAIN  69  60  73 NE10G16   30.03F
*LA GRANGE     PTSUNNY   69  61  76 E5        30.05F
*GIDDINGS      CLOUDY    67  57  70 SE6       30.10F
*GONZALES      CLOUDY    67  63  87 E6        30.05F
$$

TXZ163>164-176>182-195>201-210>213-226-227-235-172300-
SOUTHEAST TEXAS

CITY           SKY/WX    TMP DP  RH WIND       PRES   REMARKS
COLLEGE STN    CLOUDY    72  56  57 VRB5      30.06F
*BRYAN         CLOUDY    70  57  62 E3        30.06F
*CALDWELL      CLOUDY    68  57  68 S7        30.10S
*CROCKETT      MOSUNNY   75  57  53 NE12      30.11F
*BRENHAM       MOSUNNY   70  57  64 SE6       30.07S
HUNTSVILLE     PTSUNNY   72  53  51 VRB5      30.07F
CONROE         PTSUNNY   72  54  53 MISG      30.07S
HOUSTON BUSH   PTSUNNY   71  56  58 SE10      30.06F
HOUSTON HOBBY  CLOUDY    67  55  65 E13G20    30.07S
*HOUSTON SW AP CLOUDY    65  56  70 E10G16    30.08S
PEARLAND       CLOUDY    66  54  65 E13       30.09S
HOUSTON HOOKS  PTSUNNY   72  57  59 E8        30.05F
ELLINGTON FLD  PTSUNNY   70  59  68 E10       30.09S
SUGAR LAND     CLOUDY    68  56  65 E12       30.06F
*HOUSTON EXEC  CLOUDY    68  68 100 SE9       30.07S
*CLEVELAND MUN PTSUNNY   73  56  55 E5        30.08S
*WHARTON       CLOUDY    67  58  72 E10       30.06S
$$

TXZ214>216-236>238-172300-
THE UPPER TEXAS COAST

CITY           SKY/WX    TMP DP  RH WIND       PRES   REMARKS
*ORANGE        CLOUDY    65  54  65 NE10      30.12S
PORT ARTHUR    CLOUDY    67  53  61 E10       30.09S
GALVESTON      CLOUDY    64  59  83 NE15      30.07F
ANGLETON       CLOUDY    65  58  78 E9        30.07S
*BAY CITY      CLOUDY    67  61  81 E10       30.06S
PALACIOS       LGT RAIN  66  60  81 E14       30.05S
$$

TXZ229>234-239>247-172300-
TEXAS COASTAL BEND AND RIO GRANDE PLAINS

CITY           SKY/WX    TMP DP  RH WIND       PRES   REMARKS
VICTORIA       CLOUDY    67  61  81 NE10      30.06R HAZE
*BEEVILLE      CLOUDY    69  66  90 E6        30.01F
ROCKPORT       CLOUDY    68  63  84 E12       30.02R
*PORT ARANSAS  CLOUDY    68  64  89 E9        30.02R
*PORT LAVACA   CLOUDY    67  61  81 E14       30.05R
*INGLESIDE     CLOUDY    71  64  78 E13       30.02R
CORPUS CHRISTI CLOUDY    71  64  78 E16       30.00S
CORPUS NAS     CLOUDY    70  65  84 E14       30.01R
*ROBSTOWN      CLOUDY    72  65  80 E15       30.00F
ALICE          CLOUDY    75  64  68 E12       29.98F
KINGSVILLE NAS PTSUNNY   75  65  70 E15       29.98F
COTULLA        MOSUNNY   78  56  46 E12G18    29.97F
*FAITH RANCH   MOSUNNY   81  55  41 SE9       29.96S
LAREDO         CLOUDY    79  58  48 SE12      29.98S
$$

TXZ248>255-172300-
DEEP SOUTH TEXAS

CITY           SKY/WX    TMP DP  RH WIND       PRES   REMARKS
BROWNSVILLE    CLOUDY    71  66  84 NE12      29.95S
PORT ISABEL    CLOUDY    73  65  75 NE16G23   29.96S
*SOUTH PADRE   LGT RAIN  72  66  83 CALM      29.96R
HARLINGEN      CLOUDY    72  65  78 NE14      29.95S
*HEBBRONVILLE  CLOUDY    74  59  57 E8        29.99R
MCALLEN        CLOUDY    74  64  71 E10       29.95S
*WESLACO       CLOUDY    74  64  70 NE10G16   29.95S
FALFURRIAS     CLOUDY    77  65  67 E10       29.97S
EDINBURG       CLOUDY    76  64  66 NE8       29.96F
*ZAPATA        CLOUDY    76  59  54 SE5       29.95S
$$

TXZ213>215-236>238-242>244-246-247-251-254-255-172300-
CMAN STATIONS

STATION/POSITION TIME  TEMP    WIND        PRES    WAVE
                       AIR SEA DIR/SP/G            HT/PER
                 (UTC) (F)     (DEG/KT/KT) (MB)    (FT/S)
SABINE PASS      2100   64 65   50/ 10/ 15 1019.2
SEA RIM ST PARK  2100   63      50/ 12/ 15 1019.6
NORTH JETTY/GLS  2100   63 67  110/ 17/ 19   N/A
EAGLE POINT      2100   64 59   90/  8/ 10 1018.4
MORGANS POINT    2100   65 62   90/ 11/ 14 1020.0
MISSION/ARANSAS  2100   67      90/ 16     1017.0
PORT O`CONNOR    2100           80/ 18/ 21   N/A
PORT ARANSAS     2100   66 67   80/ 14/ 16 1016.3
MALAQUITE BEACH  2100   66 67   80/ 16/ 18 1015.2
BAFFIN BAY       2100   68 69   90/ 15/ 18 1015.5
PORT ISABEL      2100   69 66   40/ 12/ 17 1014.4
$$

GMZ080-GMZ150>470-172300-
OFFSHORE BUOY REPORTS

STATION/POSITION TIME  TEMP    WIND        PRES    WAVE
                       AIR SEA DIR/SP/G            HT/PER
                 (UTC) (F)     (DEG/KT/KT) (MB)    (FT/S)
20 E GALVESTON   2200   63 66   50/ 17/ 19 1018.0    5/ 6
35 NE PT MANSFLD 2200   69 69   80/ 16/ 17 1015.1    4/ 6
$$